Dublin, VA

1:17 PM EDT on September 21, 2017 (GMT -0400)
New River Valley

Weather History for KPSK - March, 2013

Change the Weather History Date:

Tuesday, March 19, 2013

  Actual Average (KBCB) Record (KBCB)
Temperature  
Mean Temperature 43 °F -  
Max Temperature 53 °F 53 °F 78 °F (2012)
Min Temperature 33 °F 29 °F 9 °F (1967)
Degree Days  
Heating Degree Days 22    
Moisture  
Dew Point 21 °F    
Average Humidity 54    
Maximum Humidity 100    
Minimum Humidity 14    
Precipitation  
Precipitation 0.00 in - - ()
Sea Level Pressure  
Sea Level Pressure 29.92 in    
Wind  
Wind Speed 8 mph (West)    
Max Wind Speed 26 mph    
Max Gust Speed 34 mph    
Visibility 8 miles    
Events      
Averages and records for this station are not official NWS values.
T = Trace of Precipitation, MM = Missing Value Source: NWS Daily Summary

Daily Weather History Graph

Daily Weather History Graph

Search for Another Location

Airport or City:

Trip Planner

Search our weather history database for the weather conditions in past years. The results will help you decide how hot, cold, wet, or windy it might be!

Date:

Astronomy

Mar. 19, 2013 Rise Set
Actual Time 7:27 AM EDT 7:33 PM EDT
Civil Twilight 7:01 AM EDT 7:59 PM EDT
Nautical Twilight 6:31 AM EDT 8:30 PM EDT
Astronomical Twilight 6:00 AM EDT 9:00 PM EDT
Moon 12:23 PM EDT (3/19) 2:12 AM EDT (3/19)
Length of Visible Light 12h 58m
Length of Day
12h 06m
Waxing Crescent, 49% of the Moon is Illuminated
Mar 19
Waxing Crescent
Mar 19
First Quarter
Mar 27
Full
Apr 3
Last Quarter
Apr 10
New

Hourly Weather History & Observations

Time (EDT) Temp. Windchill Dew Point Humidity Pressure Visibility Wind Dir Wind Speed Gust Speed Precip Events Conditions
12:15 AM 33.8 °F - 33.8 °F 100% 29.88 in 5.0 mi Calm Calm - N/A   Overcast
12:35 AM 33.8 °F - 33.8 °F 100% 29.87 in 4.0 mi Calm Calm - N/A   Overcast
12:55 AM 33.8 °F - 33.8 °F 100% 29.87 in 3.0 mi Calm Calm - N/A   Overcast
1:15 AM 33.8 °F - 33.8 °F 100% 29.86 in 3.0 mi Calm Calm - N/A   Overcast
1:35 AM 33.8 °F - 33.8 °F 100% 29.86 in 3.0 mi Calm Calm - N/A   Overcast
1:55 AM 33.8 °F - 33.8 °F 100% 29.85 in 2.5 mi Calm Calm - N/A   Overcast
2:15 AM 33.8 °F - 33.8 °F 100% 29.84 in - Calm Calm - N/A   Overcast
2:35 AM 33.8 °F - 33.8 °F 100% 29.84 in - Calm Calm - N/A   Overcast
2:55 AM 33.8 °F - 33.8 °F 100% 29.84 in 1.5 mi Calm Calm - N/A   Overcast
3:15 AM 35.6 °F 32.8 °F 35.6 °F 100% 29.84 in 2.5 mi SW 3.5 mph - N/A   Overcast
3:55 AM 35.6 °F - 35.6 °F 100% 29.82 in 3.0 mi Calm Calm - N/A   Overcast
4:15 AM 35.6 °F - 35.6 °F 100% 29.82 in 3.0 mi Calm Calm - N/A   Overcast
4:35 AM 35.6 °F - 35.6 °F 100% 29.81 in - Calm Calm - N/A   Overcast
4:55 AM 35.6 °F - 35.6 °F 100% 29.82 in - Calm Calm - N/A   Overcast
5:15 AM 35.6 °F - 35.6 °F 100% 29.82 in 1.5 mi Calm Calm - N/A   Mist
5:35 AM 35.6 °F - 35.6 °F 100% 29.83 in 2.5 mi Calm Calm - N/A   Overcast
5:55 AM 35.6 °F - 35.6 °F 100% 29.83 in 2.5 mi Calm Calm - N/A   Scattered Clouds
6:15 AM 35.6 °F - 35.6 °F 100% 29.85 in 2.5 mi Calm Calm - N/A   Scattered Clouds
6:35 AM 39.2 °F 31.6 °F 39.2 °F 100% 29.87 in 10.0 mi WNW 12.7 mph - N/A   Overcast
6:55 AM 42.8 °F 36.6 °F 42.8 °F 100% 29.89 in 10.0 mi WNW 11.5 mph 23.0 mph N/A   Overcast
7:15 AM 41.0 °F 32.8 °F 41.0 °F 100% 29.90 in 10.0 mi NW 16.1 mph 21.9 mph N/A   Overcast
7:35 AM 39.2 °F 30.8 °F 39.2 °F 100% 29.91 in 10.0 mi NW 15.0 mph 21.9 mph N/A   Overcast
8:15 AM 39.2 °F 30.5 °F 33.8 °F 81% 29.94 in 10.0 mi WNW 16.1 mph 24.2 mph N/A   Clear
8:35 AM 39.2 °F 31.6 °F 32.0 °F 75% 29.96 in 10.0 mi West 12.7 mph 21.9 mph N/A   Scattered Clouds
8:55 AM 39.2 °F 31.6 °F 30.2 °F 70% 29.96 in 10.0 mi West 12.7 mph 17.3 mph N/A   Scattered Clouds
9:15 AM 39.2 °F 32.0 °F 30.2 °F 70% 29.97 in 10.0 mi West 11.5 mph 20.7 mph N/A   Scattered Clouds
9:35 AM 39.2 °F 33.6 °F 30.2 °F 70% 29.97 in 10.0 mi West 8.1 mph 18.4 mph N/A   Scattered Clouds
9:55 AM 41.0 °F 34.7 °F 30.2 °F 65% 29.96 in 10.0 mi West 10.4 mph - N/A   Clear
10:15 AM 41.0 °F 34.3 °F 28.4 °F 61% 29.95 in 10.0 mi SW 11.5 mph - N/A   Scattered Clouds
10:35 AM 42.8 °F 37.5 °F 30.2 °F 61% 29.94 in 10.0 mi West 9.2 mph - N/A   Scattered Clouds
10:55 AM 42.8 °F 35.8 °F 28.4 °F 57% 29.95 in 10.0 mi West 13.8 mph - N/A   Clear
11:15 AM 44.6 °F 38.4 °F 26.6 °F 49% 29.95 in 10.0 mi West 12.7 mph 19.6 mph N/A   Clear
11:35 AM 44.6 °F 38.4 °F 24.8 °F 46% 29.94 in 10.0 mi West 12.7 mph 21.9 mph N/A   Clear
11:55 AM 46.4 °F 40.4 °F 26.6 °F 46% 29.94 in 10.0 mi West 13.8 mph 19.6 mph N/A   Clear
12:15 PM 46.4 °F 40.1 °F 24.8 °F 43% 29.94 in 10.0 mi WSW 15.0 mph 21.9 mph N/A   Clear
12:35 PM 48.2 °F - 24.8 °F 40% 29.94 in 10.0 mi West 8.1 mph 17.3 mph N/A   Clear
12:55 PM 48.2 °F - 24.8 °F 40% 29.93 in 10.0 mi West 13.8 mph 19.6 mph N/A   Clear
1:15 PM 50.0 °F - 21.2 °F 32% 29.92 in 10.0 mi West 19.6 mph 27.6 mph N/A   Clear
1:35 PM 51.8 °F - 24.8 °F 35% 29.91 in 10.0 mi WSW 13.8 mph 24.2 mph N/A   Clear
1:55 PM 51.8 °F - 21.2 °F 30% 29.90 in 10.0 mi West 12.7 mph 23.0 mph N/A   Clear
2:15 PM 51.8 °F - 21.2 °F 30% 29.90 in 10.0 mi WSW 17.3 mph 25.3 mph N/A   Clear
2:35 PM 53.6 °F - 21.2 °F 28% 29.88 in 10.0 mi WSW 20.7 mph 25.3 mph N/A   Clear
2:55 PM 53.6 °F - 19.4 °F 26% 29.88 in 10.0 mi West 21.9 mph 29.9 mph N/A   Clear
3:15 PM 53.6 °F - 19.4 °F 26% 29.88 in 10.0 mi West 18.4 mph 28.8 mph N/A   Clear
3:35 PM 53.6 °F - 19.4 °F 26% 29.89 in 10.0 mi West 20.7 mph 28.8 mph N/A   Clear
3:55 PM 53.6 °F - 21.2 °F 28% 29.89 in 10.0 mi West 19.6 mph 26.5 mph N/A   Clear
4:15 PM 53.6 °F - 17.6 °F 24% 29.89 in 10.0 mi WNW 24.2 mph 31.1 mph N/A   Clear
4:35 PM 53.6 °F - 15.8 °F 22% 29.90 in 10.0 mi West 18.4 mph 34.5 mph N/A   Clear
4:55 PM 51.8 °F - 15.8 °F 24% 29.92 in 10.0 mi WNW 24.2 mph 31.1 mph N/A   Clear
5:15 PM 51.8 °F - 12.2 °F 21% 29.93 in 10.0 mi West 19.6 mph 32.2 mph N/A   Clear
5:35 PM 51.8 °F - 6.8 °F 16% 29.93 in 10.0 mi West 26.5 mph 34.5 mph N/A   Clear
5:55 PM 50.0 °F - 6.8 °F 17% 29.94 in 10.0 mi WNW 21.9 mph 31.1 mph N/A   Clear
6:15 PM 48.2 °F - 6.8 °F 19% 29.94 in 10.0 mi West 23.0 mph 28.8 mph N/A   Clear
6:35 PM 48.2 °F - 8.6 °F 20% 29.95 in 10.0 mi West 16.1 mph 24.2 mph N/A   Clear
6:55 PM 46.4 °F 38.5 °F 3.2 °F 17% 29.96 in 10.0 mi West 21.9 mph 31.1 mph N/A   Clear
7:15 PM 46.4 °F 40.7 °F 1.4 °F 16% 29.97 in 10.0 mi West 12.7 mph 27.6 mph N/A   Clear
7:35 PM 44.6 °F 37.2 °F -2.2 °F 14% 29.98 in 10.0 mi WNW 17.3 mph 29.9 mph N/A   Clear
7:55 PM 44.6 °F 37.4 °F -0.4 °F 15% 29.98 in 10.0 mi West 16.1 mph 26.5 mph N/A   Clear
8:15 PM 42.8 °F 36.2 °F 1.4 °F 18% 29.99 in 10.0 mi West 12.7 mph 16.1 mph N/A   Clear
8:35 PM 42.8 °F 34.3 °F -0.4 °F 16% 30.00 in 10.0 mi WNW 19.6 mph 23.0 mph N/A   Clear
8:55 PM 42.8 °F 34.3 °F -2.2 °F 15% 30.01 in 10.0 mi West 19.6 mph 27.6 mph N/A   Clear
9:15 PM 42.8 °F 34.8 °F -0.4 °F 16% 30.01 in 10.0 mi West 17.3 mph 26.5 mph N/A   Clear
9:35 PM 42.8 °F 35.4 °F -2.2 °F 15% 30.02 in 10.0 mi West 15.0 mph 26.5 mph N/A   Clear
9:55 PM 41.0 °F 32.8 °F -5.8 °F 14% 30.02 in 10.0 mi West 16.1 mph 24.2 mph N/A   Clear
10:15 PM 39.2 °F 31.2 °F -2.2 °F 17% 30.02 in 10.0 mi West 13.8 mph 17.3 mph N/A   Clear
10:35 PM 39.2 °F 30.8 °F -4.0 °F 16% 30.02 in 10.0 mi West 15.0 mph 24.2 mph N/A   Clear
10:55 PM 39.2 °F 32.0 °F -4.0 °F 16% 30.02 in 10.0 mi WNW 11.5 mph 25.3 mph N/A   Clear
11:15 PM 39.2 °F 30.8 °F -2.2 °F 17% 30.03 in 10.0 mi WNW 15.0 mph - N/A   Clear
11:35 PM 39.2 °F 31.2 °F -0.4 °F 19% 30.04 in 10.0 mi West 13.8 mph 21.9 mph N/A   Clear
11:55 PM 37.4 °F 28.9 °F -0.4 °F 20% 30.04 in 10.0 mi West 13.8 mph 23.0 mph N/A   Clear